Wind_Speed
96 95 98 96 93 91 86 86 83 80 76 75 76 79 77 71 72 73 74 73 75 76 75 70 71 73 77 81 80 76 76 79 74 75 77 76 76 77 79 81 79 78 74 65 57 56 55 50 45 47 47 47 40 39
100 104 105 103 100 95 92 89 84 86 86 81 78 77 70 70 72 73 76 77 76 69 71 73 77 77 78 79 76 77 77 73 74 76 75 76 77 80 77 73 72 66 66 57 53 55 49 44 43 44 44 45 38 38
91 89 88 94 97 91 90 86 81 80 75 74 69 68 71 74 73 78 76 73 74 70 74 76 77 77 75 75 77 78 72 72 74 78 84 74 65 67 66 64 64 66 64 51 45 54 44 44 41 43 42 41 36 37
79 78 75 79 76 79 74 69 69 68 67 69 67 71 73 73 73 74 75 75 74 74 75 75 76 75 77 74 74 71 72 76 77 73 67 60 58 52 55 55 54 59 55 44 43 48 43 45 43 44 41 38 34 35
78 76 69 67 67 68 68 68 67 66 67 68 68 68 68 69 71 74 73 73 74 74 73 73 78 72 74 72 73 73 79 79 75 62 53 48 47 43 46 51 52 50 45 41 42 45 42 47 41 38 38 38 34 36
73 71 70 69 65 66 65 63 64 66 67 67 68 68 69 69 69 71 71 70 73 72 79 75 75 72 71 70 71 81 61 54 50 45 45 46 42 40 44 49 45 43 39 37 37 42 44 42 36 37 38 39 39 41
64 64 65 64 64 63 63 64 63 62 63 65 66 66 66 65 64 66 68 73 72 75 71 71 73 72 73 72 70 63 58 54 48 45 49 46 45 43 45 41 45 45 40 37 32 32 41 41 40 44 43 45 47 47
64 66 67 68 66 66 65 65 65 64 62 59 61 61 62 63 66 66 68 66 67 66 69 73 76 75 75 75 62 59 54 50 48 50 51 50 51 50 46 44 50 48 45 44 43 42 43 50 50 52 53 53 54 55
54 52 55 56 57 58 59 60 61 60 61 65 68 69 69 64 61 61 66 67 69 71 73 75 74 76 67 62 60 56 52 50 49 52 53 53 56 58 52 51 52 53 49 51 50 50 49 51 53 56 58 58 59 62
68 67 66 65 66 67 61 64 67 66 66 59 61 62 60 63 65 64 67 70 73 73 71 69 70 65 62 60 59 59 58 57 54 55 57 55 59 60 58 57 58 58 59 58 57 59 58 61 60 60 62 64 64 66
54 56 56 58 59 58 58 59 57 60 63 64 65 65 65 66 68 68 70 73 73 72 73 66 60 61 60 61 62 62 63 63 62 62 62 60 65 66 64 64 64 64 65 65 62 65 69 66 67 67 69 70 70 71
59 60 59 59 57 63 64 63 65 65 66 64 65 66 67 69 71 70 70 72 74 67 64 64 65 65 68 70 70 70 69 69 69 68 69 68 71 70 70 71 71 72 74 74 73 73 76 76 75 75 76 77 76 76
62 62 61 60 60 61 63 64 63 63 67 71 71 69 70 70 68 68 67 67 68 68 69 71 71 73 76 77 78 79 80 79 78 77 78 78 77 76 76 77 78 79 80 79 79 79 81 81 81 82 82 81 78 79
54 54 53 55 58 61 63 63 61 59 61 62 63 65 69 71 71 71 71 71 72 76 78 78 80 82 85 85 86 87 88 87 86 88 89 88 88 87 88 88 89 89 89 88 87 86 86 87 86 81 79 79 77 80
56 56 57 59 60 60 63 64 65 66 66 67 69 69 69 72 73 75 75 78 80 81 82 84 86 87 89 90 92 95 99 96 96 95 95 94 92 91 90 89 89 89 91 91 90 89 88 87 87 85 83 80 76 78
63 63 64 66 67 68 70 72 71 71 72 74 75 76 77 78 79 81 81 81 83 85 88 89 91 94 97 99 101 106 106 104 100 95 93 90 88 91 88 86 89 89 86 87 89 87 85 84 84 80 78 76 74 72
72 72 71 72 71 71 72 72 71 73 75 77 78 78 80 81 82 84 87 90 91 94 95 96 95 97 98 98 100 104 106 106 107 102 91 87 84 83 83 84 84 84 87 86 85 84 82 76 72 72 70 68 67 66
79 77 77 77 78 78 78 79 79 80 82 84 86 87 88 90 92 93 95 97 98 98 99 100 101 102 104 105 105 105 104 103 99 95 91 87 83 78 77 77 80 79 76 77 75 74 69 65 65 66 62 59 59 61
85 85 84 85 85 84 85 86 87 88 89 92 94 94 93 93 93 95 98 100 101 102 102 102 103 104 106 104 102 99 95 90 87 86 84 83 82 79 76 74 71 70 69 70 66 62 60 59 58 57 54 54 52 55
89 89 91 93 93 92 93 93 94 95 95 95 95 97 98 100 101 102 104 105 106 105 103 103 102 102 100 97 94 89 85 82 80 78 76 77 78 76 74 71 65 62 60 61 61 61 60 60 59 54 52 50 48 48
93 94 95 95 95 95 96 96 98 99 100 101 102 104 104 103 105 107 109 107 106 104 99 99 99 96 89 84 82 79 78 78 77 73 69 68 70 70 69 65 60 58 55 54 54 56 55 55 54 52 49 48 47 46
99 100 99 99 101 101 101 101 103 106 107 108 108 109 110 111 111 110 111 108 102 99 96 94 88 84 83 81 79 77 74 71 70 67 65 64 64 66 64 61 56 54 51 52 52 53 54 51 49 47 46 45 44 43
106 105 105 104 104 104 108 111 112 112 112 112 114 114 112 112 109 104 101 101 97 93 93 90 87 83 80 79 79 76 71 66 66 64 62 60 58 58 55 54 52 50 50 52 47 47 45 45 44 42 41 41 40 38
109 110 111 111 113 114 115 116 117 117 118 118 117 114 109 102 96 92 94 94 92 91 87 84 79 77 75 72 69 66 64 61 59 58 54 51 52 52 50 51 50 47 46 46 45 41 41 41 40 40 40 39 37 34
118 117 115 114 115 116 120 121 121 119 116 110 106 101 94 88 87 85 88 89 90 88 81 74 71 68 66 64 61 58 55 53 52 53 52 48 48 49 49 47 44 45 44 43 43 41 38 35 35 35 33 33 32 30
111 110 113 113 116 120 122 122 116 110 103 97 92 85 81 79 77 76 83 81 78 76 74 71 70 66 61 57 56 54 52 49 51 51 49 46 45 45 46 44 41 41 40 37 36 35 34 34 33 31 30 30 28 27
108 109 112 116 118 117 114 108 102 93 88 84 82 77 71 67 67 72 75 75 68 66 67 64 60 57 53 50 48 46 44 45 46 47 46 42 40 40 41 41 39 37 35 34 33 32 31 30 30 29 29 28 25 24
93 94 96 102 99 97 92 87 84 84 82 79 72 69 67 66 64 65 65 63 61 58 55 52 50 50 49 45 42 42 42 42 44 42 39 37 36 34 34 34 33 32 30 29 29 29 29 28 27 26 25 24 23 21
78 84 88 88 85 80 78 81 79 77 74 70 65 62 56 56 58 55 54 57 54 48 44 45 48 46 43 41 40 38 37 38 41 39 34 34 32 30 29 30 30 29 28 27 25 25 25 24 23 23 22 22 20 19
78 84 81 77 74 70 71 67 60 64 64 62 56 49 49 50 51 52 50 48 43 42 42 43 44 40 39 39 40 37 36 35 34 35 33 31 27 26 27 28 27 27 27 24 23 22 21 21 22 21 20 20 20 20
71 69 66 62 60 61 59 57 56 54 52 54 52 41 36 37 48 50 40 36 36 39 41 40 35 33 36 36 34 30 29 31 31 29 28 27 28 27 26 25 24 24 24 22 20 20 19 19 20 20 19 18 18 19
59 57 55 53 53 55 54 54 46 45 53 49 44 39 37 38 44 43 36 30 32 36 36 32 29 30 30 28 26 25 23 24 26 25 26 25 26 24 23 23 23 23 21 20 19 18 18 18 19 19 18 18 18 18
45 45 43 41 43 47 48 39 41 45 45 40 38 37 36 37 37 34 33 33 32 30 29 27 27 26 24 23 23 23 24 23 24 23 22 22 21 21 21 21 21 21 20 19 18 17 17 17 18 18 17 17 17 17
Wind_Direction
235 236 238 239 243 244 245 249 250 251 254 258 261 264 266 265 271 271 268 272 273 274 278 279 280 284 285 286 291 293 294 298 297 300 303 304 304 303 302 302 299 300 303 304 306 307 306 311 310 314 316 316 317 313
235 235 237 239 240 245 247 248 251 251 254 257 260 263 263 270 268 267 269 274 274 274 277 280 283 283 284 287 292 291 295 298 301 303 304 303 301 302 303 299 299 301 299 302 304 302 308 308 310 314 316 315 315 310
233 234 236 236 239 243 247 248 250 251 255 256 259 255 262 266 267 268 270 271 273 274 279 281 281 283 287 289 290 294 295 299 298 300 301 301 299 300 299 300 301 299 297 302 306 299 308 305 311 314 314 312 312 309
229 233 235 236 239 242 244 247 249 251 251 254 257 257 259 261 263 266 270 270 271 274 278 278 283 285 289 289 292 293 295 297 299 303 303 299 299 304 308 308 302 299 302 306 299 299 309 306 314 315 314 311 314 311
229 230 231 235 239 239 243 244 246 249 250 253 257 258 260 260 262 266 268 271 272 276 277 279 283 284 288 288 293 293 295 297 297 298 299 301 305 316 314 309 311 329 316 307 302 304 309 306 316 316 314 315 319 313
229 232 234 235 236 238 240 243 245 249 252 253 254 256 258 261 263 266 267 268 272 275 279 280 283 285 285 289 291 293 296 296 294 295 297 300 309 314 311 312 334 323 323 316 308 308 307 312 318 318 317 319 317 316
231 234 232 233 234 238 240 243 244 246 248 250 255 256 256 258 264 264 265 271 272 276 276 279 280 283 285 287 292 292 292 291 291 289 292 297 302 302 303 314 320 318 323 322 320 314 308 314 315 312 313 314 314 315
234 234 235 238 241 242 244 245 247 250 254 253 253 254 258 264 265 265 267 270 271 276 276 278 279 282 287 291 290 290 290 290 291 290 292 297 298 297 299 310 309 309 311 311 312 311 310 310 312 311 311 311 311 311
221 223 234 240 240 236 241 244 247 247 248 253 255 259 264 258 258 261 265 267 269 273 276 279 284 290 289 287 285 286 288 289 290 290 293 294 294 292 297 299 300 301 302 302 303 304 305 305 305 306 305 305 306 307
231 232 236 241 242 245 248 246 249 248 247 250 250 250 252 253 259 262 264 266 268 272 277 283 286 283 280 280 282 286 287 288 288 289 288 290 288 290 292 293 294 296 297 297 298 298 300 300 301 301 302 302 303 303
232 243 243 243 244 243 241 237 239 242 245 252 250 252 254 259 261 260 262 265 270 275 278 279 278 278 279 283 285 286 287 287 287 287 288 289 289 290 291 291 291 292 292 291 291 292 293 295 296 297 297 298 299 300
230 234 234 228 229 231 240 241 245 247 246 246 249 253 255 259 259 263 268 268 271 274 278 281 283 284 284 286 287 288 288 288 287 287 284 284 285 285 286 288 288 288 289 290 291 291 292 293 294 295 296 297 296 295
235 237 239 238 237 239 239 240 246 247 248 248 248 252 257 258 263 268 269 273 277 279 282 285 286 286 287 287 287 288 289 290 289 290 288 287 286 286 286 286 285 285 285 285 285 286 287 288 290 291 293 294 294 292
236 238 237 236 237 237 240 247 249 252 252 252 255 257 258 262 267 270 273 276 280 283 284 284 285 287 287 288 288 288 289 290 291 291 291 291 292 290 289 289 288 286 285 285 285 286 286 287 288 289 289 289 290 290
240 240 242 242 245 247 247 251 255 258 261 263 264 264 267 269 271 274 277 278 279 280 282 282 284 285 286 287 288 289 289 290 290 290 290 290 290 290 290 288 286 285 285 285 285 286 287 288 289 291 291 290 289 288
243 244 245 244 245 248 250 253 256 259 261 264 265 266 268 269 271 272 274 275 277 279 280 281 283 284 286 286 286 286 288 290 290 291 291 290 289 289 286 282 282 282 282 283 283 284 284 285 288 289 289 287 286 284
243 244 246 248 250 252 254 256 258 259 259 262 264 266 268 269 271 272 274 276 278 279 281 282 283 285 286 287 287 287 289 291 292 293 290 288 285 284 283 282 284 286 283 284 286 287 288 286 284 283 283 283 283 283
249 250 251 252 254 255 257 258 259 261 263 266 268 270 271 271 272 274 276 277 278 280 281 283 284 286 287 287 288 290 291 291 291 291 288 287 286 283 283 283 285 286 286 285 286 287 286 286 285 284 284 281 280 280
249 251 253 255 256 257 259 261 263 265 267 268 270 271 272 274 275 277 278 279 280 282 283 284 286 287 289 290 290 290 289 288 286 287 286 288 287 287 287 287 286 286 288 289 288 287 285 282 280 281 282 282 280 279
251 253 255 256 258 260 260 262 265 266 268 269 271 273 274 276 277 279 281 283 284 285 287 288 289 289 289 289 289 288 287 286 285 285 285 286 286 286 287 287 288 288 286 285 284 283 283 283 284 283 281 281 278 278
253 254 256 258 260 262 263 265 268 270 271 273 275 276 278 280 281 282 284 286 287 288 290 290 289 289 287 287 286 283 284 285 284 284 283 284 286 287 287 288 288 287 286 284 281 281 282 281 283 284 285 284 282 280
255 255 257 259 261 263 265 268 270 271 272 273 275 277 278 280 282 284 285 287 288 288 289 288 287 286 286 286 285 285 283 283 285 285 284 283 282 284 287 287 287 286 284 282 280 278 279 281 281 281 280 280 279 277
256 257 260 262 264 266 267 269 270 272 273 275 276 278 280 281 283 284 286 287 287 285 284 285 285 284 284 284 284 284 285 287 288 286 285 286 285 284 285 284 283 284 284 282 281 280 280 278 277 277 277 277 277 278
257 260 262 264 266 267 269 270 270 272 274 275 276 278 280 282 282 283 284 286 285 283 282 281 282 283 284 285 284 284 285 286 286 286 283 283 281 281 280 278 278 278 277 279 281 282 279 277 278 278 276 276 278 279
257 259 262 264 267 268 268 269 271 273 274 276 277 278 279 279 281 285 287 283 282 280 280 282 284 284 285 286 286 286 285 285 284 281 281 280 279 278 277 275 275 275 277 278 279 280 280 279 277 276 276 277 277 275
259 262 264 266 266 268 269 270 272 274 275 277 277 277 278 281 286 285 278 276 277 281 284 285 285 286 286 286 286 285 284 282 279 278 279 278 277 276 275 276 277 277 279 279 278 278 279 278 277 276 274 271 269 269
260 262 264 265 266 267 269 270 272 274 275 275 275 279 283 284 281 276 275 277 281 282 281 282 284 286 284 282 281 280 277 274 274 275 278 279 278 277 278 278 277 277 276 277 277 276 275 275 274 272 271 271 270 267
259 261 261 261 263 263 266 269 271 270 271 275 280 281 280 277 275 275 275 278 278 278 281 283 280 278 278 279 277 275 275 275 275 276 278 281 281 279 277 276 275 273 273 271 270 271 273 272 271 271 271 270 267 264
253 254 255 257 259 263 265 266 268 274 277 277 276 274 276 278 273 271 275 276 278 281 278 275 274 274 277 280 277 273 271 271 273 278 283 286 282 276 274 273 271 270 268 267 267 267 269 272 271 266 265 263 261 259
247 250 253 257 261 265 267 271 273 272 272 272 274 276 274 275 278 276 274 277 281 278 273 271 272 277 277 274 273 275 277 277 276 277 281 279 274 270 268 267 267 267 269 267 266 266 265 264 263 262 260 257 255 254
249 254 258 261 265 266 266 267 266 267 272 275 274 274 277 275 274 271 275 278 273 272 272 273 277 277 275 276 280 283 286 283 280 280 276 273 268 266 266 266 266 265 262 260 259 257 257 257 258 258 255 251 250 249
253 254 256 259 260 262 261 262 270 272 266 268 274 277 272 270 269 276 279 274 269 271 274 278 277 276 279 284 282 279 275 276 277 275 274 273 271 269 265 264 263 260 255 253 254 255 255 254 252 250 247 245 245 245
256 257 258 256 256 257 260 260 260 262 266 268 270 270 270 269 271 275 275 273 273 275 275 274 274 276 277 276 273 272 273 273 272 271 269 268 268 266 261 259 258 256 253 249 248 249 251 250 248 245 242 239 239 239
Height
10399 10408 10419 10427 10436 10444 10453 10460 10467 10473 10478 10481 10485 10488 10490 10491 10492 10491 10493 10493 10493 10491 10489 10487 10482 10478 10472 10466 10463 10456 10450 10443 10438 10431 10427 10418 10412 10403 10394 10384 10375 10371 10366 10362 10359 10350 10346 10342 10336 10330 10322 10315 10309 10302
10382 10392 10402 10411 10421 10429 10437 10445 10451 10458 10462 10466 10469 10472 10474 10476 10477 10477 10476 10477 10477 10474 10472 10469 10466 10463 10455 10449 10446 10442 10436 10430 10423 10415 10408 10402 10395 10386 10377 10366 10357 10356 10347 10350 10346 10336 10334 10332 10326 10321 10314 10307 10302 10295
10367 10376 10387 10397 10405 10413 10420 10429 10435 10441 10446 10449 10454 10457 10459 10460 10462 10461 10460 10460 10459 10458 10454 10452 10448 10444 10441 10434 10429 10425 10420 10416 10409 10403 10394 10385 10377 10372 10361 10353 10342 10336 10330 10337 10334 10319 10321 10316 10316 10311 10305 10298 10293 10287
10352 10362 10371 10379 10389 10397 10405 10413 10419 10425 10430 10434 10437 10440 10443 10445 10446 10445 10443 10443 10441 10440 10439 10434 10430 10427 10423 10418 10414 10409 10405 10400 10395 10386 10379 10369 10361 10361 10350 10338 10331 10316 10322 10325 10319 10311 10311 10303 10303 10297 10291 10287 10284 10278
10337 10347 10357 10366 10373 10383 10391 10397 10403 10408 10413 10417 10421 10423 10426 10428 10428 10428 10428 10424 10422 10422 10421 10415 10413 10409 10406 10401 10400 10394 10389 10383 10378 10373 10367 10357 10351 10350 10340 10326 10317 10319 10313 10311 10309 10302 10301 10291 10291 10287 10281 10276 10273 10269
10325 10335 10344 10353 10361 10368 10375 10382 10387 10392 10396 10401 10405 10408 10409 10410 10411 10412 10411 10408 10406 10403 10399 10397 10394 10391 10390 10389 10385 10379 10371 10367 10365 10362 10354 10347 10344 10341 10332 10319 10317 10309 10307 10304 10300 10293 10288 10283 10280 10276 10272 10267 10264 10259
10313 10322 10332 10340 10347 10354 10361 10367 10372 10376 10380 10384 10387 10389 10390 10392 10394 10396 10394 10391 10388 10385 10384 10378 10374 10375 10376 10373 10368 10364 10359 10355 10354 10351 10342 10338 10333 10328 10321 10317 10312 10304 10301 10296 10295 10291 10280 10275 10272 10266 10263 10258 10252 10247
10299 10308 10317 10325 10332 10339 10345 10350 10355 10360 10363 10366 10369 10372 10374 10378 10379 10378 10374 10373 10372 10369 10364 10361 10357 10360 10358 10354 10352 10348 10345 10342 10340 10334 10330 10325 10318 10313 10311 10309 10299 10294 10291 10286 10284 10281 10278 10267 10262 10256 10250 10245 10239 10234
10288 10296 10303 10310 10317 10324 10329 10333 10338 10342 10346 10350 10352 10355 10358 10359 10359 10359 10358 10357 10354 10352 10348 10343 10344 10345 10339 10337 10335 10332 10331 10328 10328 10320 10317 10313 10304 10298 10301 10296 10289 10283 10280 10273 10268 10264 10261 10256 10250 10243 10236 10232 10226 10218
10275 10283 10291 10297 10304 10310 10314 10318 10323 10325 10329 10332 10335 10338 10339 10340 10342 10343 10341 10341 10338 10335 10333 10331 10330 10328 10325 10321 10320 10319 10316 10313 10313 10306 10302 10299 10286 10285 10284 10281 10276 10270 10265 10261 10257 10248 10245 10239 10233 10227 10220 10215 10210 10203
10261 10268 10275 10281 10288 10294 10298 10302 10306 10310 10313 10316 10318 10321 10322 10323 10324 10325 10325 10323 10321 10319 10320 10319 10314 10312 10310 10306 10304 10302 10298 10297 10296 10289 10285 10282 10269 10266 10265 10262 10257 10253 10248 10242 10241 10234 10225 10223 10218 10210 10203 10197 10190 10184
10248 10255 10262 10268 10273 10278 10283 10286 10289 10293 10296 10299 10301 10302 10303 10304 10305 10306 10307 10305 10305 10307 10304 10300 10297 10294 10290 10286 10284 10281 10279 10278 10274 10273 10269 10265 10255 10252 10248 10241 10237 10231 10225 10220 10219 10214 10205 10200 10196 10190 10182 10176 10171 10165
10233 10240 10246 10251 10256 10262 10266 10270 10273 10275 10277 10281 10282 10283 10285 10287 10288 10290 10290 10288 10288 10287 10284 10280 10277 10274 10269 10267 10264 10260 10256 10255 10252 10250 10245 10240 10236 10232 10227 10220 10214 10208 10203 10200 10195 10190 10184 10180 10174 10169 10164 10157 10152 10145
10218 10224 10230 10236 10241 10247 10251 10254 10256 10257 10260 10263 10265 10266 10266 10270 10271 10271 10271 10270 10268 10267 10264 10259 10255 10252 10246 10244 10238 10236 10233 10231 10230 10225 10220 10218 10212 10206 10198 10192 10186 10180 10175 10173 10169 10166 10160 10155 10150 10149 10146 10137 10132 10123
10205 10211 10217 10222 10226 10231 10233 10235 10238 10241 10242 10244 10246 10248 10250 10250 10252 10252 10251 10249 10247 10245 10242 10239 10235 10231 10224 10220 10215 10208 10200 10207 10205 10200 10196 10191 10186 10177 10169 10161 10156 10150 10144 10142 10141 10138 10133 10128 10123 10119 10113 10110 10108 10101
10190 10195 10200 10204 10208 10211 10215 10219 10222 10224 10225 10226 10226 10228 10229 10232 10231 10230 10229 10228 10226 10223 10218 10215 10213 10210 10204 10197 10193 10181 10174 10170 10166 10168 10164 10160 10157 10147 10140 10135 10128 10123 10122 10115 10110 10112 10112 10108 10100 10094 10089 10084 10082 10077
10172 10177 10183 10187 10191 10195 10198 10201 10203 10205 10205 10205 10206 10209 10208 10209 10209 10208 10206 10204 10201 10197 10195 10190 10190 10184 10179 10175 10166 10153 10148 10142 10134 10131 10129 10127 10125 10118 10113 10109 10104 10098 10093 10090 10088 10084 10080 10083 10081 10073 10067 10061 10059 10053
10155 10161 10166 10170 10173 10176 10179 10181 10183 10183 10184 10185 10186 10187 10185 10184 10183 10183 10180 10176 10174 10171 10168 10164 10160 10158 10148 10141 10136 10131 10126 10118 10108 10099 10091 10088 10087 10091 10090 10085 10079 10073 10069 10065 10063 10060 10057 10054 10049 10044 10043 10040 10039 10032
10139 10144 10147 10150 10152 10156 10159 10160 10162 10162 10163 10162 10162 10164 10161 10159 10158 10154 10150 10148 10146 10144 10139 10135 10131 10129 10118 10113 10105 10098 10092 10087 10084 10076 10070 10065 10061 10062 10059 10056 10055 10051 10047 10041 10038 10034 10032 10029 10026 10025 10024 10021 10020 10014
10118 10122 10126 10129 10132 10134 10136 10139 10139 10139 10139 10138 10138 10136 10134 10133 10131 10128 10124 10119 10116 10111 10108 10104 10101 10096 10089 10083 10075 10068 10064 10061 10057 10054 10050 10041 10036 10035 10033 10033 10032 10031 10029 10024 10018 10012 10010 10006 10002 10004 10003 10002 10001 9998
10098 10100 10103 10106 10108 10112 10114 10115 10115 10115 10113 10113 10111 10109 10107 10107 10103 10099 10095 10091 10087 10083 10081 10075 10067 10060 10054 10053 10047 10042 10041 10036 10032 10029 10028 10024 10014 10011 10009 10008 10009 10008 10006 10002 9999 9994 9991 9988 9986 9983 9983 9982 9981 9981
10076 10078 10080 10083 10086 10089 10092 10091 10090 10088 10086 10084 10084 10083 10081 10078 10076 10074 10068 10062 10059 10056 10050 10043 10038 10034 10030 10026 10021 10016 10014 10012 10009 10007 10004 10002 9998 9991 9989 9987 9988 9986 9984 9981 9980 9977 9973 9972 9970 9969 9968 9967 9966 9965
10051 10056 10059 10062 10064 10067 10067 10064 10062 10059 10058 10057 10056 10055 10053 10051 10050 10046 10043 10037 10032 10026 10016 10014 10012 10009 10008 10004 9997 9993 9992 9990 9987 9984 9981 9980 9977 9972 9971 9967 9966 9966 9964 9959 9961 9960 9959 9958 9956 9956 9954 9953 9952 9952
10030 10034 10038 10042 10041 10040 10037 10031 10029 10029 10029 10028 10030 10028 10025 10024 10024 10024 10021 10013 9999 9993 9989 9986 9989 9989 9985 9982 9978 9975 9972 9971 9966 9962 9960 9961 9957 9954 9952 9949 9947 9947 9947 9943 9943 9944 9944 9943 9943 9942 9941 9940 9940 9940
10009 10012 10017 10019 10018 10011 10002 9999 9998 9999 9998 10001 10006 10002 10001 9997 10001 10005 9995 9978 9968 9960 9964 9968 9968 9969 9966 9960 9957 9956 9954 9952 9948 9943 9939 9943 9940 9937 9934 9935 9934 9932 9931 9931 9930 9929 9930 9930 9929 9928 9928 9927 9927 9928
9989 9994 9999 9996 9983 9977 9971 9968 9969 9974 9977 9976 9976 9974 9974 9980 9983 9979 9957 9948 9949 9951 9953 9952 9947 9945 9944 9943 9940 9937 9935 9934 9930 9926 9924 9926 9926 9923 9921 9921 9922 9921 9919 9919 9918 9917 9917 9917 9917 9917 9916 9916 9917 9917
9975 9974 9969 9959 9950 9947 9948 9947 9949 9953 9953 9949 9947 9954 9959 9963 9959 9944 9936 9932 9940 9940 9935 9930 9929 9927 9926 9923 9921 9919 9917 9915 9915 9912 9910 9912 9912 9911 9910 9909 9908 9908 9908 9907 9906 9905 9905 9906 9906 9906 9905 9905 9907 9907
9945 9941 9934 9921 9925 9922 9928 9931 9932 9925 9925 9928 9939 9941 9939 9934 9932 9925 9921 9920 9919 9918 9918 9915 9911 9909 9907 9906 9905 9904 9904 9903 9900 9899 9898 9899 9898 9898 9897 9895 9895 9895 9896 9896 9895 9895 9895 9895 9896 9896 9896 9897 9898 9899
9916 9906 9898 9899 9903 9910 9917 9910 9910 9914 9915 9918 9918 9917 9917 9913 9906 9907 9908 9903 9903 9904 9902 9898 9893 9892 9894 9892 9890 9889 9889 9888 9886 9885 9885 9885 9885 9884 9883 9883 9884 9884 9884 9885 9886 9885 9885 9886 9887 9887 9887 9889 9890 9891
9882 9874 9881 9890 9895 9901 9898 9899 9905 9897 9895 9895 9897 9903 9900 9895 9892 9890 9890 9889 9890 9887 9885 9882 9880 9880 9879 9877 9875 9876 9877 9876 9874 9873 9875 9875 9875 9874 9873 9873 9874 9875 9876 9877 9877 9877 9878 9878 9878 9879 9881 9882 9883 9884
9870 9874 9880 9884 9887 9882 9881 9882 9885 9884 9885 9881 9879 9884 9888 9884 9873 9868 9877 9879 9875 9872 9870 9868 9870 9869 9865 9864 9866 9866 9866 9866 9865 9866 9866 9866 9864 9864 9865 9865 9866 9867 9868 9868 9868 9869 9870 9871 9872 9873 9874 9875 9877 9878
9861 9864 9866 9869 9868 9865 9869 9869 9872 9874 9865 9865 9867 9869 9869 9869 9863 9860 9863 9864 9862 9859 9858 9859 9859 9858 9856 9858 9857 9856 9857 9857 9856 9857 9857 9857 9857 9857 9857 9857 9858 9860 9860 9860 9861 9862 9863 9864 9865 9867 9868 9869 9871 9872
9850 9849 9851 9854 9855 9853 9851 9857 9859 9855 9853 9856 9856 9856 9855 9853 9851 9853 9851 9850 9849 9849 9849 9849 9849 9849 9849 9848 9848 9847 9848 9848 9848 9848 9849 9849 9849 9849 9850 9851 9852 9852 9853 9854 9854 9855 9857 9858 9859 9861 9862 9863 9865 9867